GW2455 Weather Reports


Display with metric or nautical units.
time (UTC)temp
F
wind
direction
speed
MPH
gust
MPH
rain 1hr
in
rain 24hr
in
rain mn
in
humidity
%
barometer
mb
20260905182211 75 68 7.0 10.0 0.00 0.15 0.15 89 1019.1
20260905181711 75 68 7.0 10.0 0.00 0.15 0.15 89 1019.1
20260905181212 75 91 7.0 12.0 0.00 0.15 0.15 89 1019.1
20260905180708 75 57 7.0 12.0 0.00 0.15 0.15 89 1018.9
20260905180208 75 79 5.0 10.0 0.00 0.15 0.15 90 1018.9
20260905175802 75 89 8.0 10.0 0.00 0.15 0.15 89 1018.9
20260905174705 75 74 6.0 10.0 0.00 0.15 0.15 90 1018.8
20260905174204 75 101 4.0 9.0 0.00 0.15 0.15 90 1018.9
20260905173703 75 102 6.0 10.0 0.00 0.15 0.15 90 1018.8
20260905173203 75 139 6.0 10.0 0.00 0.15 0.15 90 1018.9
20260905173017 75 109 6.0 11.0 0.00 0.15 0.15 91 1018.9
20260905172203 75 134 8.0 11.0 0.00 0.15 0.15 90 1018.9
20260905171719 75 115 7.0 10.0 0.00 0.15 0.15 90 1018.8
20260905171202 75 85 6.0 10.0 0.00 0.15 0.15 91 1018.7
20260905171020 75 113 7.0 10.0 0.00 0.15 0.15 91 1018.8
20260905170203 75 96 5.0 9.0 0.00 0.15 0.15 91 1018.8
20260905165703 75 129 5.0 9.0 0.00 0.15 0.15 91 1018.8
20260905165202 75 112 7.0 10.0 0.00 0.15 0.15 91 1018.7
20260905164807 75 137 4.0 11.0 0.00 0.15 0.15 91 1018.7
20260905163703 75 110 7.0 11.0 0.00 0.15 0.15 92 1018.7
20260905163159 75 98 6.0 11.0 0.00 0.15 0.15 92 1018.7
20260905162701 76 124 8.0 10.0 0.00 0.15 0.15 92 1018.7
20260905162159 76 134 5.0 6.0 0.00 0.15 0.15 92 1018.7
20260905161658 76 187 2.0 7.0 0.00 0.15 0.15 92 1018.7
20260905161159 75 220 5.0 7.0 0.00 0.15 0.15 91 1018.7
20260905160655 76 192 2.0 7.0 0.00 0.15 0.15 91 1018.6
20260905160155 76 210 2.0 10.0 0.00 0.15 0.15 91 1018.7
20260905155655 76 187 6.0 10.0 0.00 0.15 0.15 90 1018.8
20260905155500 76 208 4.0 7.0 0.00 0.15 0.15 91 1018.7
20260905154646 76 216 5.0 9.0 0.00 0.15 0.15 91 1018.7
20260905154143 76 216 4.0 9.0 0.00 0.15 0.15 91 1018.7
20260905153640 76 242 5.0 7.0 0.00 0.15 0.15 91 1018.7
20260905153239 76 244 4.0 10.0 0.00 0.15 0.15 91 1018.7
20260905152234 76 219 7.0 10.0 0.00 0.15 0.15 91 1018.7
20260905151134 76 250 6.0 10.0 0.00 0.15 0.15 92 1018.7
20260905150949 76 229 6.0 9.0 0.00 0.15 0.15 92 1018.7
20260905150131 76 249 6.0 10.0 0.00 0.15 0.15 93 1018.7
20260905145634 75 263 6.0 10.0 0.00 0.15 0.15 93 1018.6
20260905145443 75 203 6.0 9.0 0.00 0.15 0.15 94 1018.7
20260905144632 75 249 5.0 9.0 0.00 0.15 0.15 94 1018.7
20260905144131 75 229 4.0 9.0 0.00 0.15 0.15 95 1018.7
20260905143944 75 203 5.0 12.0 0.00 0.15 0.15 95 1018.7
20260905143446 75 247 7.0 13.0 0.00 0.15 0.15 94 1018.6
20260905142631 75 253 8.0 13.0 0.00 0.15 0.15 94 1018.7
20260905142131 75 243 9.0 13.0 0.00 0.15 0.15 94 1018.6
20260905141631 75 254 8.0 14.0 0.00 0.15 0.15 94 1018.5
20260905141133 75 253 11.0 15.0 0.00 0.15 0.15 94 1018.5
20260905140631 76 261 11.0 17.0 0.00 0.15 0.15 95 1018.5
20260905140445 75 256 11.0 17.0 0.01 0.15 0.15 95 1018.4
20260905135632 74 244 11.0 16.0 0.01 0.14 0.15 95 1018.5
20260905135131 74 254 11.0 17.0 0.01 0.14 0.15 95 1018.6
20260905134632 74 257 12.0 17.0 0.01 0.14 0.15 95 1018.5
20260905134134 74 261 9.0 17.0 0.01 0.14 0.15 95 1018.4
20260905133632 74 281 11.0 16.0 0.01 0.14 0.15 95 1018.4
20260905133132 74 264 11.0 16.0 0.02 0.14 0.15 95 1018.3
20260905132632 74 257 11.0 18.0 0.15 0.14 0.15 95 1018.4
20260905132132 74 258 11.0 18.0 0.15 0.14 0.15 95 1018.4
20260905131633 74 267 13.0 18.0 0.15 0.14 0.15 95 1018.5
20260905131509 74 230 11.0 17.0 0.15 0.14 0.15 96 1018.4
20260905130632 74 274 12.0 17.0 0.15 0.14 0.15 96 1018.4
20260905130133 74 282 9.0 13.0 0.14 0.14 0.14 96 1018.5
20260905125633 74 260 8.0 13.0 0.14 0.00 0.14 96 1018.4
20260905125134 74 267 8.0 16.0 0.14 0.00 0.14 96 1018.3
20260905124632 74 257 10.0 16.0 0.14 0.00 0.14 95 1018.4
20260905124131 73 227 9.0 17.0 0.14 0.00 0.14 95 1018.4
20260905123633 73 280 10.0 28.0 0.14 0.00 0.14 94 1018.5
20260905123133 73 274 16.0 28.0 0.13 0.00 0.13 92 1018.5
20260905122633 76 227 17.0 21.0 0.00 0.00 0.00 95 1018.5
20260905122446 76 225 17.0 21.0 0.00 0.00 0.00 95 1018.5
20260905121631 76 215 16.0 21.0 0.00 0.00 0.00 95 1018.5
20260905121131 76 182 16.0 21.0 0.00 0.00 0.00 95 1018.5
20260905120630 76 212 17.0 19.0 0.00 0.00 0.00 95 1018.6
20260905120129 76 218 16.0 19.0 0.00 0.00 0.00 96 1018.5
20260905115628 76 218 15.0 20.0 0.00 0.00 0.00 95 1018.5
20260905115123 76 181 13.0 20.0 0.00 0.00 0.00 95 1018.5
20260905114621 76 199 14.0 20.0 0.00 0.00 0.00 95 1018.3
20260905114212 76 209 16.0 20.0 0.00 0.00 0.00 95 1018.3
20260905113117 76 195 13.0 20.0 0.00 0.00 0.00 95 1018.2
20260905112618 76 226 14.0 20.0 0.00 0.00 0.00 95 1018.3
20260905112131 76 216 13.0 19.0 0.00 0.00 0.00 95 1018.2
20260905111617 76 174 15.0 19.0 0.00 0.00 0.00 95 1018.2
20260905111433 76 188 13.0 18.0 0.00 0.00 0.00 95 1018.1
20260905110613 76 178 10.0 17.0 0.00 0.00 0.00 95 1017.9
20260905110216 76 201 10.0 15.0 0.00 0.00 0.00 95 1017.8
20260905105114 76 220 10.0 16.0 0.00 0.00 0.00 96 1017.8
20260905104614 76 189 9.0 16.0 0.00 0.00 0.00 96 1017.8
20260905104111 76 212 10.0 17.0 0.00 0.00 0.00 96 1017.8
20260905103611 75 195 12.0 17.0 0.00 0.00 0.00 96 1017.8
20260905103109 75 208 13.0 17.0 0.00 0.00 0.00 96 1017.7
20260905102604 76 213 14.0 18.0 0.00 0.00 0.00 96 1017.7
20260905102425 75 202 15.0 18.0 0.00 0.00 0.00 96 1017.7
20260905101604 76 227 15.0 18.0 0.00 0.00 0.00 96 1017.7
20260905101103 76 222 14.0 20.0 0.00 0.00 0.00 96 1017.7
20260905100605 75 213 15.0 20.0 0.00 0.00 0.00 96 1017.7
20260905100201 75 243 15.0 20.0 0.00 0.00 0.00 96 1017.7
20260905095103 75 202 16.0 21.0 0.00 0.00 0.00 96 1017.6
20260905094604 75 223 16.0 21.0 0.00 0.00 0.00 96 1017.7
20260905094103 76 226 16.0 20.0 0.00 0.00 0.00 96 1017.7
20260905093559 75 244 16.0 20.0 0.00 0.00 0.00 96 1017.7
20260905093406 76 206 16.0 21.0 0.00 0.00 0.00 96 1017.7
20260905092855 76 203 15.0 21.0 0.00 0.00 0.00 96 1017.7
20260905092038 76 220 16.0 21.0 0.00 0.00 0.00 96 1017.7
20260905091631 76 218 17.0 22.0 0.00 0.00 0.00 95 1017.8
20260905090532 76 222 18.0 22.0 0.00 0.00 0.00 95 1017.7
20260905090032 76 225 17.0 22.0 0.00 0.00 0.00 96 1017.7
20260905085533 76 236 16.0 22.0 0.00 0.00 0.00 96 1017.7
20260905085028 76 218 16.0 21.0 0.00 0.00 0.00 96 1017.8
20260905084526 76 237 18.0 21.0 0.00 0.00 0.00 96 1017.7
20260905084025 76 219 17.0 22.0 0.00 0.00 0.00 96 1017.7
20260905083520 76 218 16.0 23.0 0.00 0.00 0.00 96 1017.6
20260905083021 75 218 18.0 24.0 0.00 0.00 0.00 96 1017.6
20260905082519 75 230 19.0 24.0 0.00 0.00 0.00 96 1017.5
20260905082017 75 222 18.0 24.0 0.00 0.00 0.00 96 1017.4
20260905081517 75 210 17.0 24.0 0.00 0.00 0.00 96 1017.3
20260905081015 75 226 18.0 24.0 0.00 0.00 0.00 96 1017.2
20260905080515 75 258 18.0 23.0 0.00 0.00 0.00 96 1017.1
20260905080014 75 226 17.0 22.0 0.00 0.00 0.00 96 1017.1
20260905075833 75 210 17.0 24.0 0.00 0.00 0.00 96 1017.1
20260905075011 75 202 18.0 24.0 0.00 0.00 0.00 96 1017.0
20260905074511 75 250 19.0 24.0 0.00 0.00 0.00 96 1016.9
20260905074012 75 222 16.0 23.0 0.00 0.00 0.00 96 1016.8
20260905073826 75 213 18.0 24.0 0.00 0.00 0.00 95 1016.8
20260905073006 75 229 16.0 24.0 0.00 0.00 0.00 95 1016.9
20260905072508 75 229 18.0 23.0 0.00 0.00 0.00 95 1016.8
20260905072005 75 223 17.0 22.0 0.00 0.00 0.00 96 1016.8
20260905071503 75 234 14.0 22.0 0.00 0.00 0.00 96 1016.7
20260905071004 75 218 16.0 21.0 0.00 0.00 0.00 96 1016.6
20260905070505 75 205 16.0 20.0 0.00 0.00 0.00 96 1016.6
20260905070003 75 202 17.0 22.0 0.00 0.00 0.00 95 1016.5
20260905065826 75 223 17.0 22.0 0.00 0.00 0.00 95 1016.3
20260905065003 75 226 18.0 22.0 0.00 0.00 0.00 95 1016.3
20260905064503 75 222 17.0 22.0 0.00 0.00 0.00 95 1016.2
20260905064003 75 222 19.0 22.0 0.00 0.00 0.00 95 1016.1
20260905063502 75 244 18.0 22.0 0.00 0.00 0.00 95 1016.2
20260905063118 75 240 15.0 23.0 0.00 0.00 0.00 95 1016.3
20260905061955 75 201 14.0 21.0 0.00 0.00 0.00 95 1016.3
20260905061451 75 210 15.0 22.0 0.00 0.00 0.00 95 1016.2
20260905060948 75 237 17.0 22.0 0.00 0.00 0.00 95 1016.3
20260905060447 75 212 17.0 21.0 0.00 0.00 0.00 95 1016.4
20260905060257 75 222 16.0 20.0 0.00 0.00 0.00 94 1016.4
20260905055444 75 218 16.0 21.0 0.00 0.00 0.00 94 1016.5
20260905054937 75 220 17.0 21.0 0.00 0.00 0.00 94 1016.5
20260905054434 75 206 17.0 21.0 0.00 0.00 0.00 94 1016.6
20260905053933 75 230 17.0 21.0 0.00 0.00 0.00 94 1016.6
20260905053432 75 218 16.0 21.0 0.00 0.00 0.00 94 1016.6
20260905052933 75 229 17.0 21.0 0.00 0.00 0.00 94 1016.6
20260905052431 75 227 16.0 20.0 0.00 0.00 0.00 94 1016.7
20260905051932 75 218 17.0 20.0 0.00 0.00 0.00 94 1016.7
20260905051431 75 222 15.0 20.0 0.00 0.00 0.00 94 1016.7
20260905050931 75 216 16.0 20.0 0.00 0.00 0.00 94 1016.7
20260905050433 75 263 14.0 19.0 0.00 0.00 0.00 94 1016.8
20260905045932 75 220 15.0 19.0 0.00 0.00 0.00 94 1016.7
20260905045434 75 225 13.0 19.0 0.00 0.00 0.00 94 1016.8
20260905044935 75 227 14.0 19.0 0.00 0.00 0.00 94 1016.7
20260905044754 75 223 12.0 17.0 0.00 0.00 0.00 94 1016.8
20260905043927 75 234 11.0 17.0 0.00 0.00 0.00 94 1016.8
20260905043426 75 242 10.0 16.0 0.00 0.00 0.00 94 1016.9
20260905042921 75 239 11.0 18.0 0.00 0.00 0.00 95 1016.9
20260905042419 75 250 11.0 18.0 0.00 0.00 0.00 95 1016.9
20260905041921 75 237 12.0 17.0 0.00 0.00 0.00 95 1016.9
20260905041420 75 234 12.0 17.0 0.00 0.00 0.00 94 1017.0
20260905040917 75 219 11.0 17.0 0.00 0.00 0.00 94 1017.0
20260905040415 75 246 12.0 17.0 0.00 0.00 0.00 94 1017.1
20260905035914 75 254 12.0 19.0 0.00 0.00 0.00 94 1017.1
20260905035734 75 239 13.0 19.0 0.00 0.00 0.00 94 1017.1
20260905034911 75 242 14.0 19.0 0.00 0.00 0.00 94 1017.0
20260905034407 75 242 13.0 18.0 0.00 0.00 0.00 95 1017.1
20260905033906 75 230 11.0 19.0 0.00 0.00 0.00 95 1017.0
20260905033407 75 247 12.0 19.0 0.00 0.00 0.00 95 1017.1
20260905032906 76 225 14.0 19.0 0.00 0.00 0.00 95 1017.1
20260905032719 76 209 14.0 20.0 0.00 0.00 0.00 95 1017.0
20260905031904 76 222 15.0 22.0 0.00 0.00 0.00 95 1017.0
20260905031403 76 181 17.0 23.0 0.00 0.00 0.00 95 1017.0
20260905030905 76 240 17.0 24.0 0.00 0.00 0.00 95 1017.1
20260905030404 76 216 17.0 24.0 0.00 0.00 0.00 95 1017.0
20260905025903 76 215 17.0 22.0 0.00 0.00 0.00 95 1017.0
20260905025402 75 225 17.0 22.0 0.00 0.00 0.00 96 1017.1
20260905024903 76 215 15.0 21.0 0.00 0.00 0.00 96 1017.1
20260905024406 76 185 16.0 21.0 0.00 0.00 0.00 96 1017.1
20260905023904 76 220 17.0 22.0 0.00 0.00 0.00 96 1017.2
20260905023403 76 256 17.0 22.0 0.00 0.00 0.00 96 1017.3
20260905022905 76 230 18.0 22.0 0.00 0.00 0.00 96 1017.4
20260905022401 76 209 17.0 21.0 0.00 0.00 0.00 96 1017.4
20260905021859 75 189 14.0 21.0 0.00 0.00 0.00 96 1017.4
20260905021358 75 205 13.0 21.0 0.00 0.00 0.00 96 1017.5
20260905020852 75 209 12.0 19.0 0.00 0.00 0.00 96 1017.6
20260905020351 75 196 12.0 19.0 0.00 0.00 0.00 96 1017.7
20260905015852 75 227 13.0 17.0 0.00 0.00 0.00 96 1017.8
20260905015345 75 203 12.0 20.0 0.00 0.00 0.00 96 1017.8
20260905014836 75 189 12.0 20.0 0.00 0.00 0.00 96 1017.8
20260905014650 75 223 11.0 19.0 0.00 0.00 0.00 96 1018.0
20260905013834 75 226 13.0 19.0 0.00 0.00 0.00 96 1017.9
20260905013334 75 230 13.0 19.0 0.00 0.00 0.00 96 1018.0
20260905012834 75 234 13.0 19.0 0.00 0.00 0.00 96 1017.9
20260905012629 75 242 10.0 16.0 0.00 0.00 0.00 96 1017.9
20260905011833 75 184 11.0 16.0 0.00 0.00 0.00 96 1017.8
20260905011333 75 188 11.0 16.0 0.00 0.00 0.00 96 1017.9
20260905010835 75 249 11.0 16.0 0.00 0.00 0.00 96 1017.9
20260905010331 75 250 10.0 17.0 0.00 0.00 0.00 96 1018.0
20260905005831 76 206 10.0 19.0 0.00 0.00 0.00 96 1018.0
20260905005328 76 234 12.0 19.0 0.00 0.00 0.00 96 1018.0
20260905004830 76 226 11.0 17.0 0.00 0.00 0.00 96 1018.1
20260905004328 76 185 11.0 17.0 0.00 0.00 0.00 96 1018.1
20260905003827 76 185 9.0 17.0 0.00 0.00 0.00 96 1018.1
20260905003323 76 188 10.0 17.0 0.00 0.00 0.00 96 1018.0
20260905002826 76 233 11.0 17.0 0.00 0.00 0.00 96 1018.1
20260905002324 76 249 11.0 17.0 0.00 0.00 0.00 96 1018.0
20260905001822 76 191 11.0 18.0 0.00 0.00 0.00 96 1018.1
20260905001640 76 210 11.0 18.0 0.00 0.00 0.00 96 1018.2
20260905000819 76 203 12.0 18.0 0.00 0.00 0.00 96 1018.2
20260905000318 76 226 11.0 17.0 0.00 0.00 0.00 96 1018.3
20260904235814 76 223 12.0 18.0 0.00 0.00 0.00 96 1018.3
20260904235310 76 267 10.0 18.0 0.00 0.00 0.00 96 1018.3
20260904234810 76 199 12.0 18.0 0.00 0.00 0.00 96 1018.3
20260904234310 76 218 11.0 18.0 0.00 0.00 0.00 96 1018.4
20260904233810 76 213 12.0 17.0 0.00 0.00 0.00 96 1018.5
20260904233308 76 219 12.0 17.0 0.00 0.00 0.00 96 1018.5
20260904232805 76 242 12.0 17.0 0.00 0.00 0.00 96 1018.5
20260904232307 76 199 10.0 17.0 0.00 0.00 0.00 96 1018.5
20260904232119 76 219 12.0 17.0 0.00 0.00 0.00 96 1018.6
20260904231302 76 206 13.0 17.0 0.00 0.00 0.00 96 1018.7
20260904230801 76 199 12.0 17.0 0.00 0.00 0.00 96 1018.7
20260904230257 76 179 12.0 17.0 0.00 0.00 0.00 96 1018.7
20260904225755 76 223 10.0 15.0 0.00 0.00 0.00 96 1018.7
20260904225252 76 213 11.0 15.0 0.00 0.00 0.00 96 1018.7
20260904224748 76 205 10.0 15.0 0.00 0.00 0.00 96 1018.7
20260904224249 76 202 11.0 16.0 0.00 0.00 0.00 96 1018.8
20260904224101 76 202 10.0 16.0 0.00 0.00 0.00 96 1018.7
20260904223243 76 194 9.0 15.0 0.00 0.00 0.00 96 1018.7
20260904222738 76 246 10.0 15.0 0.00 0.00 0.00 96 1018.7
20260904222555 76 212 10.0 16.0 0.00 0.00 0.00 96 1018.6
20260904221735 76 220 10.0 16.0 0.00 0.00 0.00 95 1018.7
20260904221234 76 205 9.0 16.0 0.00 0.00 0.00 95 1018.6
20260904220735 76 223 11.0 16.0 0.00 0.00 0.00 95 1018.6
20260904220231 76 206 9.0 15.0 0.00 0.00 0.00 95 1018.6
20260904215732 76 199 11.0 15.0 0.00 0.00 0.00 95 1018.6
20260904215545 76 192 9.0 15.0 0.00 0.00 0.00 95 1018.5
20260904214733 76 208 8.0 14.0 0.00 0.00 0.00 95 1018.4
20260904214232 76 229 8.0 15.0 0.00 0.00 0.00 95 1018.4
20260904213732 76 198 8.0 15.0 0.00 0.00 0.00 95 1018.4
20260904213232 76 194 9.0 15.0 0.00 0.00 0.00 95 1018.2
20260904212731 76 179 8.0 13.0 0.00 0.00 0.00 95 1018.2
20260904212231 76 201 9.0 14.0 0.00 0.00 0.00 95 1018.2
20260904211730 76 191 8.0 14.0 0.00 0.00 0.00 95 1018.2
20260904211225 76 174 8.0 13.0 0.00 0.00 0.00 95 1018.1
20260904210803 76 201 8.0 13.0 0.00 0.00 0.00 95 1018.1
20260904205712 76 225 9.0 13.0 0.00 0.00 0.00 95 1018.1
20260904205211 76 213 9.0 13.0 0.00 0.00 0.00 95 1018.0
20260904204711 76 218 8.0 15.0 0.00 0.00 0.00 95 1017.9
20260904204313 76 172 9.0 15.0 0.00 0.00 0.00 95 1017.9
20260904203208 76 192 9.0 14.0 0.00 0.00 0.00 95 1017.9
20260904203020 76 206 9.0 14.0 0.00 0.00 0.00 95 1017.9
20260904202203 76 234 9.0 14.0 0.00 0.00 0.00 95 1017.9
20260904201706 76 181 10.0 14.0 0.00 0.00 0.00 94 1017.9
20260904201204 76 202 11.0 15.0 0.00 0.00 0.00 94 1018.0
20260904200704 76 237 10.0 15.0 0.00 0.00 0.00 94 1018.0
20260904200205 76 199 10.0 18.0 0.00 0.00 0.00 94 1017.9
20260904195712 76 219 13.0 18.0 0.00 0.00 0.00 94 1018.0
20260904195204 76 220 11.0 15.0 0.00 0.00 0.00 95 1018.0
20260904195007 76 215 10.0 13.0 0.00 0.00 0.00 95 1018.0
20260904194501 76 240 9.0 13.0 0.00 0.00 0.00 95 1018.1
20260904193704 76 216 7.0 12.0 0.00 0.00 0.00 95 1018.0
20260904193205 76 192 9.0 12.0 0.00 0.00 0.00 95 1018.0
20260904192702 76 209 9.0 12.0 0.00 0.00 0.00 95 1018.0
20260904192203 76 218 8.0 14.0 0.00 0.00 0.00 95 1018.0
20260904191703 76 201 8.0 14.0 0.00 0.00 0.00 95 1017.9
20260904191204 76 188 8.0 12.0 0.00 0.00 0.00 95 1017.9
20260904191027 76 209 8.0 12.0 0.00 0.00 0.00 94 1017.9
20260904190204 76 188 8.0 12.0 0.00 0.00 0.00 94 1017.9
20260904185703 76 160 7.0 13.0 0.00 0.00 0.00 94 1018.0
20260904185159 76 236 7.0 13.0 0.00 0.00 0.00 94 1018.1
20260904184658 76 187 8.0 13.0 0.00 0.00 0.00 94 1018.1
20260904184514 76 185 8.0 13.0 0.00 0.00 0.00 94 1018.0
20260904183656 76 195 9.0 13.0 0.00 0.00 0.00 94 1018.1
20260904183155 76 184 9.0 14.0 0.00 0.00 0.00 94 1018.1